QFA597 YBCG-YSSY

Flight info

Callsign QFA597
Flight time 1h 11m
Altitude 30000
Route GOMOL Q16 APAGI H91 IGDAM H652 BOREE
Aircraft B738/M-SDE2E3FGHIRWXY/LB1

Departure

Time 2026-05-04 12:32
Airport Gold Coast Airport (YBCG)

Arrival

Time 2026-05-04 13:44
Airport Sydney Kingsford Smith International Airport (YSSY)
Time Latitude Longitude Altitude Speed Heading
2026-05-04 12:03 -28.16631 153.51111 25 ft 0 kts 60°
2026-05-04 12:16 -28.16638 153.51097 27 ft 4 kts 65°
2026-05-04 12:16 -28.16647 153.51069 28 ft 3 kts 75°
2026-05-04 12:16 -28.16654 153.51049 26 ft 4 kts 28°
2026-05-04 12:16 -28.16677 153.51047 26 ft 4 kts 340°
2026-05-04 12:17 -28.16694 153.51056 27 ft 0 kts 330°
2026-05-04 12:27 -28.16688 153.51052 30 ft 4 kts 332°
2026-05-04 12:27 -28.16644 153.51023 26 ft 13 kts 330°
2026-05-04 12:27 -28.16589 153.50988 26 ft 9 kts 331°
2026-05-04 12:27 -28.16532 153.50952 26 ft 11 kts 331°
2026-05-04 12:28 -28.16493 153.50875 25 ft 15 kts 256°
2026-05-04 12:28 -28.16423 153.50776 26 ft 21 kts 330°
2026-05-04 12:28 -28.16284 153.50688 26 ft 23 kts 331°
2026-05-04 12:28 -28.16144 153.50599 25 ft 23 kts 329°
2026-05-04 12:29 -28.16000 153.50508 27 ft 25 kts 330°
2026-05-04 12:29 -28.15834 153.50401 26 ft 27 kts 331°
2026-05-04 12:29 -28.15696 153.50315 27 ft 15 kts 330°
2026-05-04 12:30 -28.15684 153.50307 109 ft 17 kts 330°
2026-05-04 12:31 -28.15612 153.50189 25 ft 16 kts 259°
2026-05-04 12:31 -28.15683 153.50086 29 ft 14 kts 173°
2026-05-04 12:31 -28.15803 153.50166 27 ft 38 kts 149°
2026-05-04 12:31 -28.16240 153.50448 25 ft 105 kts 150°
2026-05-04 12:32 -28.17051 153.50961 29 ft 160 kts 152°
2026-05-04 12:32 -28.19245 153.52344 1073 ft 185 kts 150°
2026-05-04 12:32 -28.20453 153.53009 1573 ft 205 kts 157°
2026-05-04 12:33 -28.21867 153.53609 1766 ft 227 kts 159°
2026-05-04 12:33 -28.23404 153.54245 2023 ft 247 kts 159°
2026-05-04 12:33 -28.25123 153.54705 2440 ft 263 kts 180°
2026-05-04 12:33 -28.26871 153.54123 3218 ft 266 kts 212°
2026-05-04 12:34 -28.28104 153.52607 3989 ft 269 kts 244°
2026-05-04 12:34 -28.28460 153.50543 4777 ft 271 kts 276°
2026-05-04 12:34 -28.28224 153.48420 5515 ft 274 kts 268°
2026-05-04 12:34 -28.28675 153.46330 6236 ft 276 kts 241°
2026-05-04 12:35 -28.29781 153.44553 6992 ft 277 kts 232°
2026-05-04 12:35 -28.30998 153.42828 7646 ft 282 kts 232°
2026-05-04 12:35 -28.32226 153.41078 8350 ft 285 kts 233°
2026-05-04 12:35 -28.33451 153.39298 9043 ft 288 kts 233°
2026-05-04 12:36 -28.34675 153.37481 9742 ft 291 kts 234°
2026-05-04 12:36 -28.35902 153.35632 10332 ft 298 kts 235°
2026-05-04 12:36 -28.37186 153.33669 10482 ft 321 kts 235°
2026-05-04 12:36 -28.38548 153.31567 10687 ft 339 kts 236°
2026-05-04 12:37 -28.39961 153.29377 11157 ft 347 kts 236°
2026-05-04 12:37 -28.41392 153.27153 11792 ft 350 kts 236°
2026-05-04 12:37 -28.42828 153.24915 12456 ft 352 kts 237°
2026-05-04 12:37 -28.44275 153.22655 13118 ft 355 kts 237°
2026-05-04 12:38 -28.45727 153.20380 13773 ft 357 kts 237°
2026-05-04 12:38 -28.47191 153.18085 14371 ft 360 kts 237°
2026-05-04 12:38 -28.48664 153.15774 14976 ft 362 kts 237°
2026-05-04 12:38 -28.50145 153.13446 15597 ft 364 kts 237°
2026-05-04 12:39 -28.51632 153.11110 16231 ft 366 kts 238°
2026-05-04 12:39 -28.53133 153.08751 16831 ft 369 kts 238°
2026-05-04 12:39 -28.54602 153.06422 17171 ft 356 kts 238°
2026-05-04 12:39 -28.56049 153.04151 17153 ft 357 kts 238°
2026-05-04 12:40 -28.57531 153.01819 17382 ft 370 kts 238°
2026-05-04 12:40 -28.59053 152.99423 17866 ft 375 kts 238°
2026-05-04 12:40 -28.60587 152.97008 18475 ft 377 kts 238°
2026-05-04 12:40 -28.62124 152.94587 19015 ft 378 kts 238°
2026-05-04 12:41 -28.63664 152.92160 19538 ft 379 kts 238°
2026-05-04 12:41 -28.65209 152.89719 20060 ft 381 kts 238°
2026-05-04 12:41 -28.66762 152.87266 20593 ft 383 kts 239°
2026-05-04 12:41 -28.68321 152.84802 21127 ft 384 kts 239°
2026-05-04 12:42 -28.69886 152.82326 21627 ft 386 kts 239°
2026-05-04 12:42 -28.71434 152.79875 22165 ft 387 kts 239°
2026-05-04 12:42 -28.73011 152.77377 22643 ft 389 kts 239°
2026-05-04 12:42 -28.74596 152.74863 23102 ft 392 kts 240°
2026-05-04 12:43 -28.76188 152.72340 23652 ft 392 kts 240°
2026-05-04 12:43 -28.77783 152.69811 24082 ft 393 kts 240°
2026-05-04 12:43 -28.79398 152.67251 24401 ft 393 kts 240°
2026-05-04 12:43 -28.80979 152.64735 24674 ft 398 kts 240°
2026-05-04 12:44 -28.82595 152.62166 25101 ft 398 kts 240°
2026-05-04 12:44 -28.84254 152.59628 25571 ft 402 kts 235°
2026-05-04 12:44 -28.86397 152.57524 26085 ft 415 kts 219°
2026-05-04 12:44 -28.88944 152.55932 26621 ft 417 kts 216°
2026-05-04 12:45 -28.91530 152.54425 27083 ft 417 kts 215°
2026-05-04 12:45 -28.94122 152.52933 27547 ft 417 kts 216°
2026-05-04 12:45 -28.96701 152.51444 28085 ft 414 kts 216°
2026-05-04 12:45 -28.99264 152.49949 28567 ft 413 kts 217°
2026-05-04 12:46 -29.01814 152.48448 29006 ft 413 kts 217°
2026-05-04 12:46 -29.04363 152.46942 29495 ft 411 kts 217°
2026-05-04 12:46 -29.06896 152.45439 30067 ft 407 kts 218°
2026-05-04 12:47 -29.11945 152.42423 30168 ft 410 kts 218°
2026-05-04 12:47 -29.16960 152.39424 30175 ft 405 kts 218°
2026-05-04 12:48 -29.21974 152.36429 30178 ft 408 kts 218°
2026-05-04 12:48 -29.26999 152.33416 30155 ft 408 kts 218°
2026-05-04 12:49 -29.32031 152.30405 30173 ft 408 kts 218°
2026-05-04 12:49 -29.37023 152.27414 30181 ft 408 kts 219°
2026-05-04 12:50 -29.42048 152.24403 30170 ft 407 kts 219°
2026-05-04 12:50 -29.47038 152.21390 30202 ft 403 kts 220°
2026-05-04 12:51 -29.52126 152.18549 30190 ft 401 kts 220°
2026-05-04 12:51 -29.56998 152.15434 30186 ft 402 kts 219°
2026-05-04 12:52 -29.61952 152.12413 30194 ft 403 kts 219°
2026-05-04 12:52 -29.66086 152.09924 30192 ft 404 kts 219°
2026-05-04 12:53 -29.71219 152.07158 30198 ft 418 kts 208°
2026-05-04 12:53 -29.76979 152.05583 30197 ft 429 kts 203°
2026-05-04 12:54 -29.82828 152.04136 30181 ft 430 kts 203°
2026-05-04 12:54 -29.88675 152.02648 30180 ft 431 kts 204°
2026-05-04 12:55 -29.94517 152.01130 30190 ft 430 kts 204°
2026-05-04 12:55 -30.00345 151.99598 30206 ft 429 kts 204°
2026-05-04 12:56 -30.06174 151.98070 30164 ft 429 kts 204°
2026-05-04 12:56 -30.11992 151.96544 30190 ft 430 kts 204°
2026-05-04 12:57 -30.17826 151.95009 30188 ft 430 kts 204°
2026-05-04 12:57 -30.23659 151.93478 30191 ft 429 kts 204°
2026-05-04 12:58 -30.29485 151.91943 30183 ft 430 kts 204°
2026-05-04 12:58 -30.35157 151.90055 30191 ft 417 kts 212°
2026-05-04 12:59 -30.40500 151.87527 30187 ft 414 kts 214°
2026-05-04 12:59 -30.45823 151.84955 30202 ft 415 kts 214°
2026-05-04 13:00 -30.51177 151.82417 30180 ft 416 kts 213°
2026-05-04 13:00 -30.56545 151.79902 30168 ft 416 kts 213°
2026-05-04 13:01 -30.61900 151.77400 30171 ft 414 kts 213°
2026-05-04 13:01 -30.67243 151.74900 30168 ft 413 kts 213°
2026-05-04 13:02 -30.72577 151.72399 30183 ft 414 kts 213°
2026-05-04 13:02 -30.77911 151.69896 30168 ft 413 kts 213°
2026-05-04 13:03 -30.83244 151.67391 30167 ft 413 kts 213°
2026-05-04 13:03 -30.88574 151.64884 30164 ft 413 kts 213°
2026-05-04 13:04 -30.93865 151.62391 30168 ft 413 kts 213°
2026-05-04 13:04 -30.99236 151.59859 30165 ft 414 kts 213°
2026-05-04 13:05 -31.04540 151.57354 30165 ft 414 kts 213°
2026-05-04 13:05 -31.09886 151.54827 30169 ft 415 kts 213°
2026-05-04 13:06 -31.15240 151.52292 30170 ft 416 kts 213°
2026-05-04 13:06 -31.20603 151.49752 30162 ft 416 kts 213°
2026-05-04 13:07 -31.25960 151.47211 30165 ft 415 kts 213°
2026-05-04 13:07 -31.31310 151.44670 30161 ft 415 kts 213°
2026-05-04 13:08 -31.36647 151.42131 30162 ft 414 kts 214°
2026-05-04 13:08 -31.42007 151.39638 30166 ft 415 kts 212°
2026-05-04 13:09 -31.47407 151.37251 30159 ft 414 kts 212°
2026-05-04 13:09 -31.52789 151.34867 30155 ft 412 kts 212°
2026-05-04 13:10 -31.58152 151.32483 30182 ft 413 kts 212°
2026-05-04 13:10 -31.63518 151.30083 30150 ft 413 kts 212°
2026-05-04 13:11 -31.68895 151.27673 30147 ft 414 kts 212°
2026-05-04 13:11 -31.74265 151.25271 30143 ft 411 kts 212°
2026-05-04 13:12 -31.79609 151.22866 30148 ft 412 kts 211°
2026-05-04 13:12 -31.84972 151.20460 30127 ft 412 kts 211°
2026-05-04 13:13 -31.90329 151.18039 30134 ft 414 kts 212°
2026-05-04 13:13 -31.95689 151.15630 30131 ft 415 kts 211°
2026-05-04 13:13 -31.98355 151.14443 30102 ft 403 kts 211°
2026-05-04 13:14 -32.00943 151.13297 30105 ft 391 kts 212°
2026-05-04 13:14 -32.03467 151.12173 29817 ft 385 kts 212°
2026-05-04 13:14 -32.05953 151.11059 29547 ft 381 kts 212°
2026-05-04 13:14 -32.08412 151.09949 29235 ft 376 kts 212°
2026-05-04 13:15 -32.10842 151.08820 28869 ft 374 kts 212°
2026-05-04 13:15 -32.13229 151.07754 28945 ft 361 kts 212°
2026-05-04 13:15 -32.15589 151.06700 29009 ft 367 kts 212°
2026-05-04 13:15 -32.18013 151.05603 29009 ft 379 kts 212°
2026-05-04 13:16 -32.20512 151.04469 29020 ft 390 kts 211°
2026-05-04 13:16 -32.23084 151.03306 29031 ft 401 kts 212°
2026-05-04 13:16 -32.25756 151.02091 28408 ft 427 kts 211°
2026-05-04 13:16 -32.28574 151.00812 28003 ft 437 kts 210°
2026-05-04 13:17 -32.31415 150.99541 27483 ft 435 kts 210°
2026-05-04 13:17 -32.34235 150.98284 27028 ft 431 kts 210°
2026-05-04 13:17 -32.37023 150.97035 26576 ft 427 kts 209°
2026-05-04 13:17 -32.39782 150.95791 26140 ft 423 kts 209°
2026-05-04 13:18 -32.42524 150.94549 25715 ft 420 kts 209°
2026-05-04 13:18 -32.45240 150.93318 25279 ft 417 kts 208°
2026-05-04 13:18 -32.47991 150.92227 24852 ft 421 kts 200°
2026-05-04 13:18 -32.50901 150.91709 24441 ft 427 kts 189°
2026-05-04 13:19 -32.53884 150.91782 24055 ft 431 kts 178°
2026-05-04 13:19 -32.56846 150.92293 23661 ft 430 kts 175°
2026-05-04 13:19 -32.59792 150.92873 23148 ft 429 kts 175°
2026-05-04 13:19 -32.62725 150.93452 22713 ft 426 kts 175°
2026-05-04 13:20 -32.65639 150.94009 22271 ft 423 kts 175°
2026-05-04 13:20 -32.68540 150.94549 21841 ft 421 kts 175°
2026-05-04 13:20 -32.71427 150.95074 21409 ft 418 kts 175°
2026-05-04 13:20 -32.74291 150.95589 21003 ft 416 kts 175°
2026-05-04 13:21 -32.77146 150.96102 20590 ft 414 kts 175°
2026-05-04 13:21 -32.79985 150.96613 20162 ft 412 kts 175°
2026-05-04 13:21 -32.82815 150.97116 19761 ft 410 kts 175°
2026-05-04 13:21 -32.85628 150.97614 19360 ft 408 kts 175°
2026-05-04 13:22 -32.88436 150.98108 18946 ft 407 kts 175°
2026-05-04 13:22 -32.91230 150.98605 18538 ft 406 kts 175°
2026-05-04 13:22 -32.94026 150.99103 18072 ft 406 kts 175°
2026-05-04 13:22 -32.96812 150.99599 17635 ft 404 kts 175°
2026-05-04 13:23 -32.99580 151.00092 17214 ft 401 kts 175°
2026-05-04 13:23 -33.02330 151.00583 16809 ft 399 kts 175°
2026-05-04 13:23 -33.05065 151.01070 16412 ft 396 kts 175°
2026-05-04 13:23 -33.07779 151.01554 16009 ft 393 kts 175°
2026-05-04 13:24 -33.10481 151.02036 15615 ft 391 kts 175°
2026-05-04 13:24 -33.13160 151.02515 15227 ft 389 kts 175°
2026-05-04 13:24 -33.15831 151.02992 14845 ft 387 kts 175°
2026-05-04 13:25 -33.21123 151.03940 14066 ft 383 kts 175°
2026-05-04 13:25 -33.23756 151.04411 13639 ft 381 kts 175°
2026-05-04 13:25 -33.26362 151.04897 13294 ft 377 kts 174°
2026-05-04 13:25 -33.28937 151.05394 12876 ft 375 kts 174°
2026-05-04 13:26 -33.31498 151.05889 12499 ft 372 kts 174°
2026-05-04 13:26 -33.34043 151.06378 12099 ft 369 kts 174°
2026-05-04 13:26 -33.36570 151.06862 11712 ft 367 kts 174°
2026-05-04 13:26 -33.39082 151.07344 11312 ft 365 kts 174°
2026-05-04 13:27 -33.41594 151.07825 10915 ft 364 kts 174°
2026-05-04 13:27 -33.44074 151.08300 10700 ft 357 kts 174°
2026-05-04 13:27 -33.46500 151.08767 10511 ft 349 kts 174°
2026-05-04 13:27 -33.48876 151.09226 10342 ft 341 kts 174°
2026-05-04 13:28 -33.51198 151.09673 10179 ft 334 kts 174°
2026-05-04 13:28 -33.53470 151.10111 10033 ft 327 kts 174°
2026-05-04 13:28 -33.55687 151.10537 9939 ft 317 kts 174°
2026-05-04 13:28 -33.57828 151.10952 9852 ft 307 kts 174°
2026-05-04 13:29 -33.59985 151.11364 9263 ft 317 kts 174°
2026-05-04 13:29 -33.62157 151.11782 8960 ft 315 kts 174°
2026-05-04 13:29 -33.64299 151.12208 8742 ft 310 kts 173°
2026-05-04 13:29 -33.66410 151.12631 8546 ft 305 kts 174°
2026-05-04 13:30 -33.68492 151.13036 8353 ft 301 kts 174°
2026-05-04 13:30 -33.70541 151.13439 8185 ft 297 kts 174°
2026-05-04 13:30 -33.72572 151.13835 7997 ft 294 kts 174°
2026-05-04 13:30 -33.74579 151.14223 7832 ft 291 kts 174°
2026-05-04 13:31 -33.76548 151.14605 7681 ft 290 kts 174°
2026-05-04 13:31 -33.78532 151.14989 7519 ft 288 kts 174°
2026-05-04 13:31 -33.80508 151.15365 7348 ft 286 kts 177°
2026-05-04 13:31 -33.82439 151.15211 7173 ft 274 kts 199°
2026-05-04 13:32 -33.84286 151.14644 7033 ft 275 kts 199°
2026-05-04 13:32 -33.86155 151.14073 6885 ft 279 kts 199°
2026-05-04 13:32 -33.88041 151.13509 6708 ft 280 kts 198°
2026-05-04 13:32 -33.89930 151.12956 6551 ft 279 kts 198°
2026-05-04 13:33 -33.91810 151.12411 6373 ft 278 kts 198°
2026-05-04 13:33 -33.93692 151.11868 6191 ft 277 kts 198°
2026-05-04 13:33 -33.95561 151.11329 6033 ft 275 kts 198°
2026-05-04 13:33 -33.97417 151.10794 5865 ft 273 kts 198°
2026-05-04 13:34 -33.99260 151.10262 5700 ft 271 kts 198°
2026-05-04 13:34 -34.01084 151.09735 5537 ft 269 kts 198°
2026-05-04 13:34 -34.02893 151.09212 5378 ft 266 kts 198°
2026-05-04 13:34 -34.04687 151.08694 5223 ft 264 kts 198°
2026-05-04 13:35 -34.06467 151.08179 5064 ft 262 kts 198°
2026-05-04 13:35 -34.10094 151.08189 4780 ft 267 kts 171°
2026-05-04 13:35 -34.11905 151.08697 4600 ft 267 kts 171°
2026-05-04 13:36 -34.13716 151.09191 4432 ft 266 kts 171°
2026-05-04 13:36 -34.15518 151.09669 4258 ft 264 kts 171°
2026-05-04 13:36 -34.17312 151.10138 4106 ft 263 kts 171°
2026-05-04 13:36 -34.18494 151.10446 3997 ft 263 kts 170°
2026-05-04 13:37 -34.20175 151.11309 3812 ft 268 kts 141°
2026-05-04 13:37 -34.21303 151.13898 3672 ft 266 kts 92°
2026-05-04 13:37 -34.21166 151.15353 3594 ft 264 kts 69°
2026-05-04 13:37 -34.20400 151.17367 3577 ft 267 kts 61°
2026-05-04 13:38 -34.19479 151.19331 3524 ft 267 kts 56°
2026-05-04 13:38 -34.18477 151.21221 3260 ft 263 kts 52°
2026-05-04 13:38 -34.17214 151.22661 3151 ft 242 kts 20°
2026-05-04 13:38 -34.15628 151.22936 2901 ft 226 kts 348°
2026-05-04 13:39 -34.14155 151.22634 2911 ft 207 kts 346°
2026-05-04 13:39 -34.12796 151.22324 2924 ft 194 kts 344°
2026-05-04 13:39 -34.11484 151.21991 2930 ft 194 kts 343°
2026-05-04 13:39 -34.10144 151.21641 2783 ft 199 kts 343°
2026-05-04 13:40 -34.08800 151.21292 2524 ft 193 kts 344°
2026-05-04 13:40 -34.07527 151.20962 2274 ft 182 kts 343°
2026-05-04 13:40 -34.06325 151.20650 2044 ft 171 kts 343°
2026-05-04 13:40 -34.05195 151.20354 1834 ft 163 kts 343°
2026-05-04 13:41 -34.04112 151.20071 1615 ft 158 kts 343°
2026-05-04 13:41 -34.03068 151.19799 1426 ft 150 kts 343°
2026-05-04 13:41 -34.02043 151.19531 1220 ft 150 kts 345°
2026-05-04 13:42 -34.00020 151.18968 747 ft 151 kts 345°
2026-05-04 13:42 -33.98992 151.18742 492 ft 144 kts 349°
2026-05-04 13:42 -33.98026 151.18539 240 ft 150 kts 353°
2026-05-04 13:42 -33.96987 151.18268 134 ft 151 kts 340°
2026-05-04 13:43 -33.96002 151.17964 28 ft 139 kts 341°
2026-05-04 13:43 -33.95163 151.17736 27 ft 105 kts 348°
2026-05-04 13:43 -33.94610 151.17591 29 ft 71 kts 347°
2026-05-04 13:43 -33.94166 151.17475 28 ft 60 kts 347°
2026-05-04 13:44 -33.93794 151.17379 27 ft 50 kts 349°
2026-05-04 13:44 -33.93485 151.17301 27 ft 41 kts 348°
2026-05-04 13:44 -33.93236 151.17237 30 ft 32 kts 347°
2026-05-04 13:44 -33.93040 151.17185 29 ft 23 kts 348°
2026-05-04 13:45 -33.92953 151.17269 30 ft 16 kts 91°
2026-05-04 13:45 -33.92973 151.17391 29 ft 14 kts 102°
2026-05-04 13:45 -33.92991 151.17507 29 ft 14 kts 101°
2026-05-04 13:45 -33.93010 151.17617 29 ft 13 kts 101°
2026-05-04 13:46 -33.93038 151.17718 29 ft 13 kts 119°
2026-05-04 13:46 -33.93067 151.17811 29 ft 9 kts 125°
2026-05-04 13:46 -33.93105 151.17810 29 ft 5 kts 192°
2026-05-04 13:46 -33.93137 151.17802 29 ft 2 kts 191°
2026-05-04 13:47 -33.93141 151.17801 29 ft 0 kts 190°